This is the latest recevied weather packets stored in our database for station/object N9PBY-2. If no packets are shown the sender has not sent any weather packets the latest 10 day(s).
| Time | Temp. | Humidity | Pressure | Rain* | Wind** | Luminosity | Snow |
|---|---|---|---|---|---|---|---|
| 1777983607 | 6.11° C | 48% | 1007.1 hPa | 0 mm | - | - | - |
| 1777983007 | 5° C | 51% | 1006.7 hPa | 0 mm | - | - | - |
| 1777982407 | 4.44° C | 52% | 1006.6 hPa | 0 mm | - | - | - |
| 1777981807 | 3.89° C | 51% | 1006.4 hPa | 0 mm | - | - | - |
| 1777981206 | 3.89° C | 49% | 1006.4 hPa | 0 mm | - | - | - |
| 1777980606 | 3.89° C | 47% | 1006.6 hPa | 0 mm | - | - | - |
| 1777980006 | 4.44° C | 46% | 1006.5 hPa | 0 mm | - | - | - |
| 1777979407 | 4.44° C | 43% | 1006.4 hPa | 0 mm | - | - | - |
| 1777978806 | 5° C | 41% | 1006.3 hPa | 0 mm | - | - | - |
| 1777978207 | 5° C | 39% | 1006.2 hPa | 0 mm | - | - | - |
| 1777977607 | 5.56° C | 39% | 1006 hPa | 0 mm | - | - | - |
| 1777977007 | 5.56° C | 38% | 1005.9 hPa | 0 mm | - | - | - |
| 1777976406 | 6.11° C | 38% | 1005.7 hPa | 0 mm | - | - | - |
| 1777975807 | 6.67° C | 37% | 1005.6 hPa | 0 mm | - | - | - |
| 1777975207 | 6.67° C | 35% | 1005.7 hPa | 0 mm | - | - | - |
| 1777974607 | 6.67° C | 36% | 1005.8 hPa | 0 mm | - | - | - |
| 1777974007 | 6.67° C | 37% | 1005.6 hPa | 0 mm | - | - | - |
| 1777973407 | 6.67° C | 37% | 1005.4 hPa | 0 mm | - | - | - |
| 1777972806 | 6.67° C | 41% | 1005.4 hPa | 0 mm | - | - | - |
| 1777972207 | 6.67° C | 43% | 1005.5 hPa | 0 mm | - | - | - |
| 1777971607 | 7.22° C | 45% | 1004.9 hPa | 0 mm | - | - | - |
| 1777971007 | 7.22° C | 44% | 1004.6 hPa | 0 mm | - | - | - |
| 1777970406 | 7.22° C | 44% | 1004.4 hPa | 0 mm | - | - | - |
| 1777969806 | 7.78° C | 43% | 1004.1 hPa | 0 mm | - | - | - |
| 1777969206 | 7.78° C | 43% | 1003.9 hPa | 0 mm | - | - | - |
* Rain latest hour (hover to see other rain measurements)
** Current wind speed in m/s (hover to see current wind gust speed)